Dewpoint
7 7 7 7 7 8 8 9 10 9 10 10 9 9 8 8 7 5 4 4 2 2 3 1 2 3 1 4 6 2 0 5 8 6 7 6 6 13 19 22 25 26 25 27 28 28 29 30 30 31 32 34 35 34 34 35 34 34 35 36 37 38 38 38 38 39 40 41 41 42 42 43 45 46
7 8 7 8 7 8 9 9 9 9 9 9 9 10 10 10 8 6 5 4 3 3 3 2 -1 -1 -1 0 1 1 1 9 7 6 5 6 6 15 19 22 24 25 24 24 25 27 28 29 30 29 31 32 34 34 33 35 35 35 34 36 36 37 37 38 38 38 39 40 41 41 42 43 44 46
8 8 8 7 8 8 9 9 9 9 10 9 9 9 9 9 8 8 6 4 4 3 2 3 1 1 1 1 1 1 2 7 6 5 6 7 13 17 16 19 21 23 23 23 25 26 27 28 28 29 30 32 32 33 35 33 33 34 34 35 36 35 35 36 37 37 37 39 40 41 42 42 44 45
8 8 7 8 8 8 8 8 8 8 9 10 9 9 9 8 8 8 7 5 4 4 4 4 3 1 0 1 1 1 2 3 11 6 6 7 14 10 10 16 18 18 20 22 23 25 26 26 26 27 29 31 32 32 33 33 32 32 33 35 34 34 35 36 36 37 37 38 40 41 42 43 44 44
8 9 8 7 8 8 8 9 9 9 8 9 10 10 9 8 8 7 7 6 6 5 5 4 2 2 2 2 2 1 1 3 4 9 6 7 8 9 9 8 14 15 18 20 22 23 24 25 25 26 29 30 31 32 31 31 31 31 31 31 33 34 35 36 36 36 36 38 40 41 42 43 44 44
9 9 8 8 8 8 8 8 9 9 9 9 9 9 9 9 8 8 8 7 6 5 4 3 3 2 3 2 3 2 2 3 5 5 6 7 9 8 5 4 5 14 17 19 21 23 24 25 26 27 27 27 30 30 29 29 31 30 30 30 30 32 34 35 35 35 36 37 39 40 41 42 43 44
9 9 8 8 8 9 9 9 9 9 10 10 10 10 10 10 9 9 8 8 6 5 5 4 3 3 3 2 2 3 3 5 5 4 7 8 7 5 4 4 5 13 17 20 21 23 24 25 26 26 26 28 28 29 29 28 29 29 29 30 30 30 31 32 33 36 35 36 38 39 40 41 42 43
10 9 8 8 9 10 9 9 9 10 10 11 11 10 10 10 9 8 8 9 7 6 4 4 3 3 3 3 3 3 4 4 4 7 7 5 4 3 4 4 4 9 17 19 20 21 22 23 23 24 25 26 26 27 27 27 27 27 27 28 28 29 30 30 31 33 34 35 36 37 39 40 41 42
10 10 9 9 10 10 9 9 9 10 9 10 11 10 10 10 10 10 9 9 8 6 4 4 4 3 4 4 4 3 2 4 6 6 4 3 3 3 3 3 3 12 16 17 17 17 19 19 21 22 23 24 24 25 26 26 26 26 26 26 26 28 28 29 30 31 31 32 33 35 36 37 38 38
13 11 11 10 10 9 9 8 9 10 9 9 10 10 11 11 10 9 9 8 7 6 5 5 4 4 3 2 2 2 4 5 5 4 3 2 2 2 1 2 3 2 1 1 1 8 12 14 17 20 21 22 23 24 24 25 25 25 25 26 26 27 27 28 29 30 31 31 31 32 33 34 35 36
13 12 11 11 10 10 9 9 9 10 10 10 10 11 10 10 8 7 6 6 6 7 8 6 4 4 3 2 1 3 6 7 6 3 2 -0 1 0 1 1 2 3 2 7 13 12 12 14 13 16 19 21 22 23 23 24 24 24 25 26 27 27 28 28 28 29 29 31 32 32 32 33 35 36
13 12 12 11 11 10 10 10 10 10 9 10 9 10 9 8 7 6 6 7 8 9 8 4 3 3 3 2 3 6 7 6 4 3 1 0 -0 0 1 2 2 3 2 1 1 7 9 9 11 14 15 16 18 19 20 20 21 21 24 25 26 27 27 28 28 29 29 29 30 31 32 33 34 35
11 11 12 11 11 12 13 14 14 13 14 10 10 10 8 7 7 8 8 9 9 9 8 6 5 4 3 3 6 8 7 5 4 2 1 0 0 1 2 3 3 2 1 1 2 2 2 2 2 2 2 3 7 8 14 15 17 19 21 23 24 25 26 27 28 28 29 29 30 30 31 33 33 34
11 10 10 11 13 13 14 14 14 14 15 17 15 12 11 10 10 10 10 9 9 9 7 6 4 4 4 8 8 6 5 4 2 1 1 2 4 4 5 3 -1 1 1 2 2 2 2 1 2 2 1 2 5 5 5 6 10 15 19 22 23 24 25 27 28 28 28 29 29 30 31 32 33 34
10 10 9 8 11 13 14 13 14 14 15 15 18 19 18 16 14 11 11 10 9 8 7 6 6 7 8 7 6 5 3 2 2 3 4 5 5 4 1 -0 2 2 3 2 2 1 1 1 1 1 2 2 3 4 4 12 15 18 20 22 23 23 24 25 27 28 28 29 29 29 30 32 33 33
10 10 9 8 8 10 10 10 12 14 15 17 17 16 15 15 15 15 12 11 10 9 9 7 9 7 6 5 4 2 2 2 5 6 6 5 3 2 2 1 2 3 4 3 2 1 1 1 1 1 1 3 3 3 10 16 18 20 21 22 23 24 24 25 26 28 28 28 29 29 29 31 32 33
9 9 8 7 7 8 12 12 12 9 8 13 13 13 13 13 14 14 15 15 10 9 9 10 8 6 4 3 2 4 5 8 6 6 3 3 3 4 3 3 3 5 4 3 3 1 0 0 0 -0 0 2 3 3 13 17 19 21 22 23 24 25 25 26 26 27 28 29 29 29 29 30 32 33
9 9 9 9 9 10 11 12 10 9 5 3 1 -0 -1 -0 6 12 13 12 13 12 12 8 6 5 5 4 6 8 10 8 6 5 5 6 6 6 5 5 5 4 4 4 2 -0 -1 -1 -2 -2 -1 0 1 2 9 17 19 20 21 22 23 24 25 27 27 27 28 29 29 30 30 31 32 33
9 9 8 8 10 9 7 8 8 6 4 3 -0 1 2 5 6 7 9 10 12 11 10 9 8 8 9 9 10 11 11 10 10 9 8 8 7 6 6 4 4 4 1 -0 0 -2 -2 -2 -2 -2 -2 -0 -0 2 11 16 19 20 22 23 23 24 25 26 27 28 28 28 29 30 30 31 31 33
10 9 9 10 11 9 6 11 13 12 8 6 7 7 8 9 11 12 13 15 15 13 12 11 11 12 12 16 12 12 11 9 9 9 7 6 4 3 1 -2 -2 -3 -0 -2 -1 -2 -2 -2 -3 -3 -1 -0 1 2 3 13 17 19 20 22 23 24 25 26 27 27 28 28 29 30 30 31 31 33
10 9 10 10 9 8 6 11 14 14 14 9 9 9 9 10 9 10 10 12 14 15 15 15 17 17 17 17 16 16 16 11 9 5 3 1 1 -2 -5 -6 -5 -5 -2 0 -1 -2 -3 -1 -1 -1 1 2 3 4 4 5 13 17 19 21 22 23 24 25 27 27 27 28 29 30 30 31 32 33
12 10 13 11 8 7 6 13 13 13 10 8 9 9 9 8 8 7 7 5 4 11 13 13 13 11 11 12 12 11 10 10 9 2 -2 -2 -2 -5 -5 -6 -6 -6 -4 -2 -1 -1 -2 -0 1 2 4 5 7 7 7 7 9 15 18 21 22 23 24 26 26 27 28 28 29 30 31 30 32 33
12 10 14 13 10 9 10 13 12 11 11 10 10 9 9 7 5 5 1 2 2 2 -3 -8 -12 -12 -3 -9 -12 -9 6 7 5 -5 -6 -5 -4 -5 -5 -5 -6 -8 -7 -2 4 2 1 3 4 4 3 2 4 7 9 11 11 12 11 11 12 21 23 24 26 27 27 28 29 30 31 31 33 34
10 11 12 14 15 14 14 13 13 14 14 11 10 10 6 5 3 4 2 -0 -2 -6 -11 -13 -13 -14 -14 -14 -14 -14 -13 -11 -9 -7 -4 -4 -4 -4 -5 -5 -6 -8 -7 -4 1 -1 -1 0 -0 2 2 1 1 5 9 10 12 15 18 16 15 17 21 23 24 26 27 28 29 30 31 31 33 34
9 9 9 7 14 15 13 13 12 13 12 12 13 8 6 5 7 7 -5 -10 -5 -14 -15 -15 -15 -14 -14 -14 -15 -14 -13 -11 -10 -8 -6 -6 -5 -5 -5 -5 -6 -6 -5 -2 5 1 -0 1 0 2 2 3 3 3 5 9 11 14 16 19 19 18 18 19 21 21 25 27 29 31 32 32 33 34
8 7 5 3 10 12 11 12 12 11 12 14 8 7 11 12 13 -1 -9 -17 -17 -17 -17 -16 -15 -15 -15 -15 -14 -13 -13 -12 -10 -10 -9 -7 -6 -4 -3 -3 -4 -4 -4 -1 8 3 2 1 2 2 2 3 3 5 5 7 9 12 17 22 22 21 21 21 22 22 22 23 26 29 31 33 34 33
7 4 3 4 11 12 10 11 11 11 13 11 7 10 11 11 8 -2 -16 -14 -18 -18 -17 -17 -17 -16 -16 -15 -15 -14 -14 -13 -12 -11 -10 -8 -6 -5 -2 -0 0 -0 0 2 4 4 4 2 4 3 2 3 3 4 5 5 7 11 13 20 24 23 23 24 24 25 27 28 30 32 32 33 33 33
5 2 0 6 12 10 10 9 12 14 10 7 8 8 9 5 -3 -14 -16 -18 -19 -18 -18 -17 -17 -17 -16 -15 -15 -14 -13 -13 -12 -11 -10 -8 -5 -4 -2 -0 1 3 4 5 6 7 7 6 6 6 6 5 4 3 3 6 8 9 12 17 25 25 25 26 27 28 30 32 33 33 32 33 32 34
4 9 14 13 11 9 9 14 14 12 8 8 7 6 4 -6 -18 -17 -19 -18 -20 -20 -18 -18 -17 -17 -16 -15 -14 -13 -12 -12 -11 -11 -10 -8 -5 -2 -0 0 1 4 5 6 6 7 7 6 6 6 7 7 6 6 6 6 8 9 11 14 20 25 26 27 28 30 32 34 34 33 33 33 34 35
15 16 14 12 9 10 11 0 -3 -5 -2 6 5 2 -5 -20 -19 -17 -19 -18 -20 -20 -19 -18 -17 -16 -16 -15 -14 -13 -12 -13 -13 -13 -12 -10 -7 -6 -5 -3 -2 0 3 5 6 6 6 6 6 6 6 6 6 5 6 5 5 8 12 14 19 27 27 28 30 32 34 34 34 34 34 35 35 36
11 12 10 10 11 10 10 6 5 2 2 -11 -17 -20 -19 -19 -20 -17 -18 -18 -19 -20 -20 -18 -17 -16 -15 -15 -14 -15 -15 -14 -13 -12 -11 -10 -9 -7 -6 -4 -3 -3 -1 2 3 4 5 5 6 7 5 5 6 6 7 8 8 9 12 14 21 25 28 30 31 32 35 35 35 35 35 35 36 36
8 8 11 5 -3 -5 -9 -14 -19 -21 -19 -17 -16 -21 -23 -21 -19 -10 -7 -7 -19 -22 -22 -20 -18 -17 -16 -16 -16 -15 -15 -15 -14 -13 -11 -10 -10 -8 -7 -6 -6 -5 -4 -2 -1 1 3 5 6 7 10 8 7 8 10 9 10 12 15 21 29 31 31 31 33 33 34 35 35 35 35 36 36 37
-1 -1 -3 -5 -8 -12 -14 -17 -20 -21 -21 -20 -22 -22 -23 -23 -24 -22 -22 -21 -20 -21 -21 -20 -18 -18 -17 -17 -16 -16 -16 -15 -14 -13 -11 -11 -11 -9 -8 -9 -8 -7 -6 -5 -3 -2 0 2 5 8 16 14 14 13 13 11 11 13 14 16 22 24 24 25 31 33 33 34 34 35 35 36 36 37
-0 -3 -4 -8 -12 -17 -18 -19 -18 -19 -22 -21 -20 -22 -9 -20 -22 -18 -20 -21 -21 -20 -20 -20 -20 -18 -18 -18 -17 -17 -16 -16 -15 -13 -6 -13 -12 -11 -11 -11 -10 -9 -5 -5 -5 -4 -2 0 2 7 15 16 15 14 12 10 8 10 13 13 15 17 19 21 25 31 34 34 34 34 34 35 36 37
-2 -5 -7 -14 -17 -16 -19 -18 -19 -19 -20 -18 -20 -22 -24 -24 -19 -18 -21 -20 -19 -20 -21 -20 -21 -21 -20 -19 -18 -18 -17 -16 -16 -15 -14 -14 -13 -13 -12 -12 -11 -9 -6 -6 -7 -5 -3 -2 -1 2 5 9 16 14 16 13 10 9 10 11 12 13 15 18 23 30 34 34 34 34 33 34 34 36
-5 -6 -8 -13 -16 -18 -17 -17 -18 -20 -22 -21 -23 -23 -20 -21 -20 -20 -21 -18 -22 -22 -22 -21 -20 -20 -20 -20 -19 -18 -17 -16 -17 -16 -16 -16 -15 -14 -13 -12 -11 -11 -6 -8 -7 -6 -4 -3 -2 -2 -0 3 5 6 7 13 14 11 8 8 11 12 14 17 22 28 31 34 34 34 33 32 33 34
-9 -11 -10 -11 -15 -16 -14 -17 -19 -20 -22 -22 -24 -27 -24 -21 -22 -23 -23 -22 -22 -21 -20 -21 -23 -21 -21 -20 -19 -18 -18 -18 -18 -17 -17 -17 -15 -15 -15 -13 -13 -12 -11 -9 -9 -8 -5 -5 -3 -4 -4 -2 -0 -0 3 6 11 14 11 8 9 11 12 15 19 22 23 26 32 33 33 34 34 34
-8 -11 -11 -13 -14 -15 -18 -19 -20 -19 -21 -22 -23 -23 -23 -25 -27 -27 -27 -25 -22 -22 -23 -24 -23 -22 -22 -21 -21 -20 -19 -18 -18 -18 -17 -17 -17 -16 -15 -15 -15 -14 -12 -10 -9 -8 -7 -6 -6 -5 -4 -5 -4 -3 -2 1 6 7 14 11 9 10 12 13 15 17 19 21 24 26 31 34 34 34
-7 -10 -11 -12 -13 -16 -16 -17 -16 -17 -21 -21 -22 -22 -22 -26 -29 -26 -23 -20 -22 -24 -26 -24 -23 -21 -22 -24 -22 -22 -22 -20 -20 -19 -19 -18 -17 -16 -16 -15 -15 -15 -13 -13 -12 -9 -8 -8 -7 -6 -5 -4 -4 -3 0 0 4 5 7 14 12 10 10 12 14 15 15 17 19 23 32 33 33 33
-8 -9 -10 -11 -13 -15 -17 -18 -19 -19 -20 -21 -21 -25 -25 -21 -24 -24 -23 -20 -22 -23 -26 -23 -22 -21 -24 -24 -23 -24 -24 -23 -21 -21 -20 -19 -17 -16 -16 -15 -15 -16 -15 -14 -14 -13 -11 -11 -9 -6 -3 -3 -1 2 4 5 6 2 2 6 13 12 12 13 13 13 14 15 17 26 32 33 32 33
-9 -10 -12 -14 -14 -15 -14 -16 -16 -20 -20 -22 -23 -16 -23 -29 -30 -29 -28 -25 -21 -26 -25 -27 -27 -26 -25 -25 -24 -23 -23 -20 -21 -21 -20 -19 -18 -16 -16 -15 -17 -16 -16 -16 -15 -14 -14 -11 -7 -3 -2 -3 1 4 1 -2 -3 -3 -3 -0 7 12 14 15 16 14 13 15 16 19 20 23 29 32
-9 -10 -12 -14 -13 -14 -15 -16 -19 -19 -21 -24 -22 -20 -24 -26 -29 -10 -19 -25 -30 -22 -27 -27 -28 -25 -25 -25 -25 -23 -24 -22 -23 -22 -21 -21 -20 -19 -18 -17 -18 -17 -17 -17 -17 -15 -12 -9 -7 -6 -6 -6 -3 -6 -7 -7 -7 -6 -5 -3 -1 6 10 13 16 17 16 15 14 13 14 16 21 23
-8 -10 -12 -14 -16 -16 -16 -16 -18 -17 -19 -24 -23 -23 -26 -27 -29 -23 -28 -24 -26 -23 -28 -27 -31 -29 -27 -26 -26 -24 -25 -23 -24 -24 -22 -22 -21 -21 -20 -19 -18 -18 -18 -17 -15 -13 -13 -11 -10 -9 -9 -10 -7 -6 -8 -8 -8 -7 -7 -5 -4 -3 0 8 11 14 16 17 18 17 17 16 15 16
-8 -9 -13 -13 -14 -15 -17 -17 -17 -19 -19 -21 -23 -25 -25 -24 -24 -28 -30 -29 -29 -25 -26 -26 -31 -30 -27 -25 -26 -27 -25 -23 -24 -24 -23 -22 -22 -22 -21 -20 -18 -18 -18 -18 -17 -16 -14 -13 -12 -11 -12 -12 -10 -9 -8 -8 -10 -9 -9 -6 -4 -5 -3 -1 3 8 11 13 15 17 18 19 21 22
-7 -8 -10 -13 -14 -15 -16 -17 -17 -19 -20 -22 -23 -23 -23 -24 -23 -27 -32 -33 -33 -32 -27 -27 -27 -29 -30 -25 -25 -21 -21 -15 -22 -26 -24 -24 -23 -21 -21 -20 -19 -19 -19 -19 -18 -18 -17 -15 -14 -13 -13 -12 -11 -11 -9 -8 -11 -11 -11 -9 -8 -6 -6 -2 -1 1 4 5 9 14 16 18 19 20